| time (UTC) | temp C | wind direction | speed KPH | gust KPH | rain 1hr cm | rain 24hr cm | rain mn cm | humidity % | barometer mb |
| 20260506061559 | 19 | 0 | 0.0 | 4.8 | 0.00 | 0.00 | 0.00 | 64 | 1009.1 |
| 20260506044554 | 22 | 0 | 0.0 | 6.4 | 0.00 | 0.00 | 0.00 | 42 | 1008.7 |
| 20260506043102 | 21 | 19 | 1.6 | 6.4 | 0.00 | 0.00 | 0.00 | 42 | 1008.6 |
| 20260506041557 | 21 | 0 | 0.0 | 1.6 | 0.00 | 0.00 | 0.00 | 44 | 1008.3 |
| 20260506040059 | 22 | 0 | 0.0 | 1.6 | 0.00 | 0.00 | 0.00 | 45 | 1008.2 |
| 20260506034558 | 22 | 0 | 0.0 | 1.6 | 0.00 | 0.00 | 0.00 | 44 | 1008.1 |
| 20260506033109 | 22 | 0 | 0.0 | 3.2 | 0.00 | 0.00 | 0.00 | 37 | 1008.2 |
| 20260506031556 | 23 | 0 | 0.0 | 3.2 | 0.00 | 0.00 | 0.00 | 36 | 1008.2 |
| 20260506024614 | 25 | 340 | 6.4 | 12.9 | 0.00 | 0.00 | 0.00 | 32 | 1007.8 |
| 20260506023106 | 25 | 337 | 11.3 | 16.1 | 0.00 | 0.00 | 0.00 | 31 | 1007.5 |
| 20260506021601 | 25 | 348 | 11.3 | 16.1 | 0.00 | 0.00 | 0.00 | 30 | 1007.5 |
| 20260506020100 | 25 | 325 | 11.3 | 14.5 | 0.00 | 0.00 | 0.00 | 30 | 1007.4 |
| 20260506014557 | 26 | 360 | 3.2 | 8.0 | 0.00 | 0.00 | 0.00 | 28 | 1007.3 |
| 20260506013101 | 27 | 352 | 4.8 | 9.7 | 0.00 | 0.00 | 0.00 | 26 | 1007.0 |
| 20260506011623 | 28 | 350 | 3.2 | 9.7 | 0.00 | 0.00 | 0.00 | 24 | 1006.8 |
| 20260506010110 | 28 | 296 | 6.4 | 17.7 | 0.00 | 0.00 | 0.00 | 23 | 1006.6 |
| 20260506004557 | 29 | 360 | 6.4 | 20.9 | 0.00 | 0.00 | 0.00 | 22 | 1006.7 |
| 20260506003056 | 30 | 271 | 8.0 | 19.3 | 0.00 | 0.00 | 0.00 | 23 | 1006.2 |
| 20260506001558 | 31 | 254 | 1.6 | 11.3 | 0.00 | 0.00 | 0.00 | 25 | 1005.9 |
| 20260506000100 | 31 | 236 | 4.8 | 9.7 | 0.00 | 0.00 | 0.00 | 25 | 1005.9 |
| 20260505234601 | 31 | 246 | 1.6 | 6.4 | 0.00 | 0.00 | 0.00 | 24 | 1005.7 |
| 20260505233057 | 31 | 253 | 3.2 | 14.5 | 0.00 | 0.00 | 0.00 | 23 | 1005.5 |
| 20260505231557 | 32 | 252 | 11.3 | 17.7 | 0.00 | 0.00 | 0.00 | 20 | 1005.7 |
| 20260505230059 | 33 | 284 | 9.7 | 17.7 | 0.00 | 0.00 | 0.00 | 19 | 1005.8 |
| 20260505224556 | 33 | 257 | 1.6 | 20.9 | 0.00 | 0.00 | 0.00 | 21 | 1005.7 |
| 20260505223055 | 33 | 273 | 4.8 | 19.3 | 0.00 | 0.00 | 0.00 | 21 | 1005.8 |
| 20260505221604 | 33 | 278 | 6.4 | 19.3 | 0.00 | 0.00 | 0.00 | 21 | 1005.8 |
| 20260505220103 | 33 | 360 | 12.9 | 25.7 | 0.00 | 0.00 | 0.00 | 20 | 1005.8 |
| 20260505214601 | 33 | 360 | 9.7 | 19.3 | 0.00 | 0.00 | 0.00 | 21 | 1005.8 |
| 20260505213055 | 33 | 222 | 11.3 | 19.3 | 0.00 | 0.00 | 0.00 | 21 | 1006.0 |
| 20260505211557 | 32 | 236 | 11.3 | 20.9 | 0.00 | 0.00 | 0.00 | 21 | 1006.1 |
| 20260505210057 | 33 | 259 | 9.7 | 19.3 | 0.00 | 0.00 | 0.00 | 21 | 1006.4 |
| 20260505204612 | 33 | 272 | 6.4 | 19.3 | 0.00 | 0.00 | 0.00 | 23 | 1006.5 |
| 20260505203105 | 33 | 247 | 8.0 | 19.3 | 0.00 | 0.00 | 0.00 | 23 | 1006.6 |
| 20260505201555 | 32 | 295 | 8.0 | 22.5 | 0.00 | 0.00 | 0.00 | 24 | 1006.6 |
| 20260505200056 | 32 | 268 | 4.8 | 20.9 | 0.00 | 0.00 | 0.00 | 24 | 1006.8 |
| 20260505194601 | 32 | 284 | 9.7 | 19.3 | 0.00 | 0.00 | 0.00 | 25 | 1006.9 |
| 20260505193056 | 32 | 295 | 8.0 | 22.5 | 0.00 | 0.00 | 0.00 | 26 | 1007.0 |
| 20260505191556 | 32 | 264 | 11.3 | 19.3 | 0.00 | 0.00 | 0.00 | 27 | 1007.0 |
| 20260505190058 | 32 | 276 | 8.0 | 25.7 | 0.00 | 0.00 | 0.00 | 29 | 1007.4 |
| 20260505184556 | 31 | 255 | 12.9 | 24.1 | 0.00 | 0.00 | 0.00 | 31 | 1007.6 |
| 20260505183057 | 31 | 315 | 8.0 | 22.5 | 0.00 | 0.00 | 0.00 | 33 | 1007.5 |
| 20260505181600 | 31 | 291 | 9.7 | 24.1 | 0.00 | 0.00 | 0.00 | 34 | 1007.7 |
| 20260505180055 | 31 | 248 | 6.4 | 19.3 | 0.00 | 0.00 | 0.00 | 36 | 1008.1 |
| 20260505174556 | 31 | 260 | 4.8 | 19.3 | 0.00 | 0.00 | 0.00 | 37 | 1008.0 |
| 20260505173055 | 30 | 360 | 8.0 | 20.9 | 0.00 | 0.00 | 0.00 | 40 | 1008.1 |
| 20260505171556 | 29 | 229 | 6.4 | 17.7 | 0.00 | 0.00 | 0.00 | 46 | 1008.1 |
| 20260505170055 | 28 | 229 | 4.8 | 16.1 | 0.00 | 0.00 | 0.00 | 49 | 1008.1 |
| 20260505164603 | 28 | 219 | 4.8 | 12.9 | 0.00 | 0.00 | 0.00 | 50 | 1008.0 |
| 20260505163056 | 27 | 254 | 8.0 | 16.1 | 0.00 | 0.00 | 0.00 | 53 | 1008.2 |
| 20260505161559 | 26 | 179 | 4.8 | 11.3 | 0.00 | 0.00 | 0.00 | 61 | 1008.0 |
| 20260505153109 | 25 | 215 | 3.2 | 14.5 | 0.00 | 0.00 | 0.00 | 68 | 1008.0 |
| 20260505151556 | 23 | 205 | 8.0 | 19.3 | 0.00 | 0.00 | 0.00 | 71 | 1007.9 |
| 20260505124609 | 19 | 228 | 1.6 | 4.8 | 0.00 | 0.00 | 0.00 | 85 | 1007.3 |
| 20260505123100 | 19 | 236 | 1.6 | 9.7 | 0.00 | 0.00 | 0.00 | 85 | 1007.2 |
| 20260505121556 | 19 | 261 | 1.6 | 8.0 | 0.00 | 0.00 | 0.00 | 85 | 1007.3 |
| 20260505120105 | 19 | 0 | 1.6 | 8.0 | 0.00 | 0.00 | 0.00 | 84 | 1007.0 |
| 20260505114554 | 19 | 182 | 3.2 | 8.0 | 0.00 | 0.00 | 0.00 | 84 | 1006.8 |
| 20260505113114 | 19 | 0 | 0.0 | 12.9 | 0.00 | 0.00 | 0.00 | 83 | 1006.6 |
| 20260505111601 | 19 | 226 | 3.2 | 8.0 | 0.00 | 0.00 | 0.00 | 83 | 1006.6 |
| 20260505101555 | 20 | 192 | 3.2 | 12.9 | 0.00 | 0.00 | 0.00 | 81 | 1006.4 |
| 20260505100057 | 20 | 199 | 6.4 | 19.3 | 0.00 | 0.00 | 0.00 | 80 | 1006.3 |
| 20260505094554 | 20 | 204 | 6.4 | 14.5 | 0.00 | 0.00 | 0.00 | 79 | 1006.3 |
| 20260505093104 | 20 | 171 | 3.2 | 12.9 | 0.00 | 0.00 | 0.00 | 79 | 1006.5 |
| 20260505091555 | 20 | 192 | 3.2 | 9.7 | 0.00 | 0.00 | 0.00 | 79 | 1006.2 |
| 20260505090056 | 20 | 0 | 1.6 | 14.5 | 0.00 | 0.00 | 0.00 | 79 | 1006.4 |
| 20260505084556 | 20 | 208 | 4.8 | 12.9 | 0.00 | 0.00 | 0.00 | 78 | 1006.7 |
| 20260505083100 | 20 | 210 | 6.4 | 16.1 | 0.00 | 0.00 | 0.00 | 78 | 1006.6 |
| 20260505081559 | 20 | 203 | 6.4 | 19.3 | 0.00 | 0.00 | 0.00 | 77 | 1006.6 |
| 20260505080108 | 20 | 198 | 9.7 | 19.3 | 0.00 | 0.00 | 0.00 | 77 | 1006.7 |
| 20260505074557 | 20 | 207 | 8.0 | 17.7 | 0.00 | 0.00 | 0.00 | 76 | 1006.9 |
| 20260505073101 | 21 | 213 | 11.3 | 22.5 | 0.00 | 0.00 | 0.00 | 76 | 1007.0 |
| 20260505071559 | 21 | 203 | 9.7 | 19.3 | 0.00 | 0.00 | 0.00 | 75 | 1007.3 |